Time,TemperatureF,DewpointF,PressureIn,WindDirection,WindDirectionDegrees,WindSpeedMPH,WindSpeedGustMPH,Humidity,HourlyPrecipIn,Conditions,Clouds,dailyrainin,SoftwareType,DateUTC
2013-03-03 00:00:00,31.3,24.6,30.00,North,355,0.0,3.0,76,0.00,,---,0.09,VWS V14.01,2013-03-03 05:00:00,
2013-03-03 00:01:00,31.3,24.6,30.00,North,355,1.0,3.0,76,0.00,,---,0.09,VWS V14.01,2013-03-03 05:01:00,
2013-03-03 00:03:00,31.2,24.5,30.00,North,355,0.0,2.0,76,0.00,,---,0.00,VWS V14.01,2013-03-03 05:03:00,
2013-03-03 00:08:00,31.0,24.3,30.00,NNW,331,1.0,4.0,76,0.00,,---,0.00,VWS V14.01,2013-03-03 05:08:00,
2013-03-03 00:14:00,30.8,24.5,30.00,NNW,336,0.0,4.0,77,0.00,,---,0.00,VWS V14.01,2013-03-03 05:14:00,
2013-03-03 00:19:00,30.6,24.3,30.00,NNE,15,0.0,3.0,77,0.00,,---,0.00,VWS V14.01,2013-03-03 05:19:00,
2013-03-03 00:24:00,30.4,24.1,30.00,North,360,0.0,3.0,77,0.00,,---,0.00,VWS V14.01,2013-03-03 05:24:00,
2013-03-03 00:29:00,30.2,23.9,30.00,North,360,0.0,3.0,77,0.00,,---,0.00,VWS V14.01,2013-03-03 05:29:00,
2013-03-03 00:34:00,30.1,24.1,30.01,North,360,0.0,1.0,78,0.00,,---,0.00,VWS V14.01,2013-03-03 05:34:00,
2013-03-03 00:39:00,29.9,23.9,30.01,North,360,0.0,1.0,78,0.00,,---,0.00,VWS V14.01,2013-03-03 05:39:00,
2013-03-03 00:44:00,29.7,23.7,30.01,North,360,0.0,1.0,78,0.00,,---,0.00,VWS V14.01,2013-03-03 05:44:00,
2013-03-03 00:50:00,29.5,23.8,30.01,North,360,0.0,0.0,79,0.00,,---,0.00,VWS V14.01,2013-03-03 05:50:00,
2013-03-03 00:55:00,29.3,23.6,30.01,North,360,0.0,0.0,79,0.00,,---,0.00,VWS V14.01,2013-03-03 05:55:00,
2013-03-03 01:00:00,29.2,23.8,30.01,North,360,0.0,0.0,80,0.00,,---,0.00,VWS V14.01,2013-03-03 06:00:00,
2013-03-03 01:05:00,29.0,23.6,30.01,North,360,0.0,0.0,80,0.00,,---,0.00,VWS V14.01,2013-03-03 06:05:00,
2013-03-03 01:10:00,28.8,23.4,30.01,North,360,0.0,0.0,80,0.00,,---,0.00,VWS V14.01,2013-03-03 06:10:00,
2013-03-03 01:15:00,28.7,23.3,30.01,North,360,0.0,0.0,80,0.00,,---,0.00,VWS V14.01,2013-03-03 06:15:00,
2013-03-03 01:20:00,28.5,23.1,30.01,North,360,0.0,0.0,80,0.00,,---,0.00,VWS V14.01,2013-03-03 06:20:00,
2013-03-03 01:25:00,28.3,23.2,30.02,North,360,0.0,0.0,81,0.00,,---,0.00,VWS V14.01,2013-03-03 06:25:00,
2013-03-03 01:30:00,28.1,23.3,30.02,North,360,0.0,0.0,82,0.00,,---,0.00,VWS V14.01,2013-03-03 06:30:00,
2013-03-03 01:36:00,28.0,23.5,30.02,North,360,0.0,0.0,83,0.00,,---,0.00,VWS V14.01,2013-03-03 06:36:00,
2013-03-03 01:41:00,27.8,23.3,30.02,North,360,0.0,0.0,83,0.00,,---,0.00,VWS V14.01,2013-03-03 06:41:00,
2013-03-03 01:46:00,27.6,23.4,30.02,North,360,1.0,1.0,84,0.00,,---,0.00,VWS V14.01,2013-03-03 06:46:00,
2013-03-03 01:51:00,27.4,23.2,30.01,NNW,332,0.0,2.0,84,0.00,,---,0.00,VWS V14.01,2013-03-03 06:51:00,
2013-03-03 01:56:00,27.2,23.3,30.01,NNW,332,0.0,2.0,85,0.00,,---,0.00,VWS V14.01,2013-03-03 06:56:00,
2013-03-03 02:01:00,27.1,23.2,30.01,NNW,332,0.0,0.0,85,0.00,,---,0.00,VWS V14.01,2013-03-03 07:01:00,
2013-03-03 02:06:00,26.9,23.0,30.01,NNW,332,0.0,0.0,85,0.00,,---,0.00,VWS V14.01,2013-03-03 07:06:00,
2013-03-03 02:11:00,26.7,22.8,30.01,NNW,328,2.0,2.0,85,0.00,,---,0.00,VWS V14.01,2013-03-03 07:11:00,
2013-03-03 02:16:00,26.6,22.7,30.01,NNW,329,0.0,1.0,85,0.00,,---,0.00,VWS V14.01,2013-03-03 07:16:00,
2013-03-03 02:21:00,26.4,22.5,30.01,NNW,334,1.0,2.0,85,0.00,,---,0.00,VWS V14.01,2013-03-03 07:21:00,
2013-03-03 02:26:00,26.3,22.7,30.01,NNW,343,1.0,3.0,86,0.00,,---,0.00,VWS V14.01,2013-03-03 07:26:00,
2013-03-03 02:31:00,26.1,22.5,30.01,NW,326,0.0,1.0,86,0.00,,---,0.00,VWS V14.01,2013-03-03 07:31:00,
2013-03-03 02:37:00,26.1,22.5,30.00,NW,326,0.0,2.0,86,0.00,,---,0.00,VWS V14.01,2013-03-03 07:37:00,
2013-03-03 02:42:00,26.0,22.4,30.00,NW,326,0.0,2.0,86,0.00,,---,0.00,VWS V14.01,2013-03-03 07:42:00,
2013-03-03 02:47:00,26.0,22.4,30.00,North,355,1.0,3.0,86,0.00,,---,0.00,VWS V14.01,2013-03-03 07:47:00,
2013-03-03 02:52:00,26.0,22.4,30.00,NNW,338,2.0,3.0,86,0.00,,---,0.00,VWS V14.01,2013-03-03 07:52:00,
2013-03-03 02:57:00,25.9,22.3,30.00,NNW,330,1.0,4.0,86,0.00,,---,0.00,VWS V14.01,2013-03-03 07:57:00,
2013-03-03 03:02:00,25.9,22.3,30.00,NNW,330,0.0,2.0,86,0.00,,---,0.00,VWS V14.01,2013-03-03 08:02:00,
2013-03-03 03:07:00,25.9,22.3,30.00,NNW,333,2.0,4.0,86,0.00,,---,0.00,VWS V14.01,2013-03-03 08:07:00,
2013-03-03 03:12:00,26.0,22.4,30.00,NNW,338,1.0,4.0,86,0.00,,---,0.00,VWS V14.01,2013-03-03 08:12:00,
2013-03-03 03:17:00,26.0,22.1,30.00,NNW,335,1.0,2.0,85,0.00,,---,0.00,VWS V14.01,2013-03-03 08:17:00,
2013-03-03 03:23:00,26.0,22.1,29.99,WNW,302,2.0,3.0,85,0.00,,---,0.00,VWS V14.01,2013-03-03 08:23:00,
2013-03-03 03:28:00,26.0,22.1,30.00,NNW,348,0.0,4.0,85,0.00,,---,0.00,VWS V14.01,2013-03-03 08:28:00,
2013-03-03 03:33:00,26.1,21.9,29.99,NNW,327,0.0,2.0,84,0.00,,---,0.00,VWS V14.01,2013-03-03 08:33:00,
2013-03-03 03:38:00,26.1,21.9,29.99,North,360,0.0,3.0,84,0.00,,---,0.00,VWS V14.01,2013-03-03 08:38:00,
2013-03-03 03:43:00,26.1,21.9,29.99,North,350,2.0,5.0,84,0.00,,---,0.00,VWS V14.01,2013-03-03 08:43:00,
2013-03-03 03:48:00,26.1,21.6,29.99,NW,317,0.0,3.0,83,0.00,,---,0.00,VWS V14.01,2013-03-03 08:48:00,
2013-03-03 03:53:00,26.1,21.6,29.99,North,355,2.0,3.0,83,0.00,,---,0.00,VWS V14.01,2013-03-03 08:53:00,
2013-03-03 03:58:00,26.2,21.8,29.99,North,355,1.0,3.0,83,0.00,,---,0.00,VWS V14.01,2013-03-03 08:58:00,
2013-03-03 04:03:00,26.2,21.5,30.00,NNW,344,0.0,2.0,82,0.00,,---,0.00,VWS V14.01,2013-03-03 09:03:00,
2013-03-03 04:08:00,26.2,21.5,30.00,NNW,344,0.0,2.0,82,0.00,,---,0.00,VWS V14.01,2013-03-03 09:08:00,
2013-03-03 04:13:00,26.1,21.4,30.00,NNW,344,0.0,2.0,82,0.00,,---,0.00,VWS V14.01,2013-03-03 09:13:00,
2013-03-03 04:18:00,26.1,21.4,30.00,WNW,300,1.0,2.0,82,0.00,,---,0.00,VWS V14.01,2013-03-03 09:18:00,
2013-03-03 04:23:00,26.0,21.3,30.00,NNW,338,0.0,3.0,82,0.00,,---,0.00,VWS V14.01,2013-03-03 09:23:00,
2013-03-03 04:28:00,25.9,20.9,30.01,NNW,345,2.0,4.0,81,0.00,,---,0.00,VWS V14.01,2013-03-03 09:28:00,
2013-03-03 04:34:00,25.8,20.8,30.01,NW,308,1.0,2.0,81,0.00,,---,0.00,VWS V14.01,2013-03-03 09:34:00,
2013-03-03 04:39:00,25.7,20.7,30.01,NNW,344,0.0,3.0,81,0.00,,---,0.00,VWS V14.01,2013-03-03 09:39:00,
2013-03-03 04:44:00,25.7,20.7,30.01,North,360,0.0,3.0,81,0.00,,---,0.00,VWS V14.01,2013-03-03 09:44:00,
2013-03-03 04:49:00,25.6,20.3,30.01,NNW,338,0.0,2.0,80,0.00,,---,0.00,VWS V14.01,2013-03-03 09:49:00,
2013-03-03 04:54:00,25.6,20.3,30.02,NNW,338,0.0,2.0,80,0.00,,---,0.00,VWS V14.01,2013-03-03 09:54:00,
2013-03-03 04:59:00,25.6,20.3,30.01,NNW,346,0.0,2.0,80,0.00,,---,0.00,VWS V14.01,2013-03-03 09:59:00,
2013-03-03 05:04:00,25.5,20.2,30.01,North,350,0.0,2.0,80,0.00,,---,0.00,VWS V14.01,2013-03-03 10:04:00,
2013-03-03 05:09:00,25.5,20.2,30.02,NNW,348,2.0,2.0,80,0.00,,---,0.00,VWS V14.01,2013-03-03 10:09:00,
2013-03-03 05:14:00,25.4,20.1,30.01,NNW,348,0.0,2.0,80,0.00,,---,0.00,VWS V14.01,2013-03-03 10:14:00,
2013-03-03 05:19:00,25.4,20.1,30.02,NW,321,0.0,2.0,80,0.00,,---,0.00,VWS V14.01,2013-03-03 10:19:00,
2013-03-03 05:24:00,25.3,20.0,30.02,NW,321,1.0,2.0,80,0.00,,---,0.00,VWS V14.01,2013-03-03 10:24:00,
2013-03-03 05:29:00,25.2,19.9,30.02,NW,323,0.0,2.0,80,0.00,,---,0.00,VWS V14.01,2013-03-03 10:29:00,
2013-03-03 05:35:00,25.1,19.8,30.02,NW,323,0.0,1.0,80,0.00,,---,0.00,VWS V14.01,2013-03-03 10:35:00,
2013-03-03 05:40:00,25.1,19.8,30.02,NW,324,0.0,1.0,80,0.00,,---,0.00,VWS V14.01,2013-03-03 10:40:00,
2013-03-03 05:45:00,24.9,19.6,30.02,NW,324,1.0,1.0,80,0.00,,---,0.00,VWS V14.01,2013-03-03 10:45:00,
2013-03-03 05:50:00,24.8,19.5,30.02,NW,324,0.0,0.0,80,0.00,,---,0.00,VWS V14.01,2013-03-03 10:50:00,
2013-03-03 05:55:00,24.6,19.3,30.03,NNW,339,0.0,2.0,80,0.00,,---,0.00,VWS V14.01,2013-03-03 10:55:00,
2013-03-03 06:00:00,24.5,19.2,30.03,NNW,339,0.0,2.0,80,0.00,,---,0.00,VWS V14.01,2013-03-03 11:00:00,
2013-03-03 06:05:00,24.4,19.4,30.03,NNW,339,0.0,1.0,81,0.00,,---,0.00,VWS V14.01,2013-03-03 11:05:00,
2013-03-03 06:10:00,24.2,19.2,30.03,NNW,339,0.0,1.0,81,0.00,,---,0.00,VWS V14.01,2013-03-03 11:10:00,
2013-03-03 06:16:00,24.1,19.1,30.03,NNW,339,0.0,1.0,81,0.00,,---,0.00,VWS V14.01,2013-03-03 11:16:00,
2013-03-03 06:21:00,23.9,19.2,30.03,NNW,339,0.0,0.0,82,0.00,,---,0.00,VWS V14.01,2013-03-03 11:21:00,
2013-03-03 06:26:00,23.8,19.1,30.03,NNW,339,0.0,0.0,82,0.00,,---,0.00,VWS V14.01,2013-03-03 11:26:00,
2013-03-03 06:31:00,23.6,18.9,30.03,NNW,339,0.0,0.0,82,0.00,,---,0.00,VWS V14.01,2013-03-03 11:31:00,
2013-03-03 06:36:00,23.5,18.8,30.03,NNW,339,0.0,1.0,82,0.00,,---,0.00,VWS V14.01,2013-03-03 11:36:00,
2013-03-03 06:41:00,23.3,18.9,30.03,NNW,339,0.0,1.0,83,0.00,,---,0.00,VWS V14.01,2013-03-03 11:41:00,
2013-03-03 06:46:00,23.1,18.7,30.03,NNW,339,0.0,0.0,83,0.00,,---,0.00,VWS V14.01,2013-03-03 11:46:00,
2013-03-03 06:51:00,22.9,18.5,30.03,NNW,339,0.0,0.0,83,0.00,,---,0.00,VWS V14.01,2013-03-03 11:51:00,
2013-03-03 06:56:00,22.8,18.7,30.03,NNW,339,0.0,0.0,84,0.00,,---,0.00,VWS V14.01,2013-03-03 11:56:00,
2013-03-03 07:01:00,22.7,18.6,30.03,NNW,339,0.0,0.0,84,0.00,,---,0.00,VWS V14.01,2013-03-03 12:01:00,
2013-03-03 07:06:00,22.6,18.5,30.04,NNW,339,0.0,0.0,84,0.00,,---,0.00,VWS V14.01,2013-03-03 12:06:00,
2013-03-03 07:11:00,22.5,18.4,30.04,NNW,339,0.0,1.0,84,0.00,,---,0.00,VWS V14.01,2013-03-03 12:11:00,
2013-03-03 07:16:00,22.4,18.6,30.04,NNW,339,0.0,0.0,85,0.00,,---,0.00,VWS V14.01,2013-03-03 12:16:00,
2013-03-03 07:22:00,22.3,18.5,30.04,NNW,339,1.0,1.0,85,0.00,,---,0.00,VWS V14.01,2013-03-03 12:22:00,
2013-03-03 07:27:00,22.3,18.5,30.04,NNW,339,0.0,1.0,85,0.00,,---,0.00,VWS V14.01,2013-03-03 12:27:00,
2013-03-03 07:32:00,22.4,19.1,30.04,NNW,339,0.0,1.0,87,0.00,,---,0.00,VWS V14.01,2013-03-03 12:32:00,
2013-03-03 07:37:00,22.7,19.7,30.04,NNW,339,0.0,1.0,88,0.00,,---,0.00,VWS V14.01,2013-03-03 12:37:00,
2013-03-03 07:42:00,23.2,20.5,30.05,NNW,327,1.0,3.0,89,0.00,,---,0.00,VWS V14.01,2013-03-03 12:42:00,
2013-03-03 07:47:00,24.4,21.9,30.04,NNW,336,2.0,2.0,90,0.00,,---,0.00,VWS V14.01,2013-03-03 12:47:00,
2013-03-03 07:52:00,29.0,23.3,30.05,NNW,340,2.0,4.0,79,0.00,,---,0.00,VWS V14.01,2013-03-03 12:52:00,
2013-03-03 07:57:00,30.8,23.2,30.05,NNW,332,1.0,4.0,73,0.00,,---,0.00,VWS V14.01,2013-03-03 12:57:00,
2013-03-03 08:02:00,31.5,22.9,30.05,North,355,1.0,2.0,70,0.00,,---,0.00,VWS V14.01,2013-03-03 13:02:00,
2013-03-03 08:07:00,32.2,23.2,30.05,NE,46,4.0,4.0,69,0.00,,---,0.00,VWS V14.01,2013-03-03 13:07:00,
2013-03-03 08:12:00,32.6,22.9,30.05,North,355,0.0,6.0,67,0.00,,---,0.00,VWS V14.01,2013-03-03 13:12:00,
2013-03-03 08:18:00,33.2,23.1,30.05,NNW,342,4.0,5.0,66,0.00,,---,0.00,VWS V14.01,2013-03-03 13:18:00,
2013-03-03 08:23:00,33.5,22.6,30.05,NNW,341,1.0,6.0,64,0.00,,---,0.00,VWS V14.01,2013-03-03 13:23:00,
2013-03-03 08:28:00,34.0,22.7,30.05,NNW,347,3.0,6.0,63,0.00,,---,0.00,VWS V14.01,2013-03-03 13:28:00,
2013-03-03 08:33:00,34.2,22.9,30.05,North,360,3.0,5.0,63,0.00,,---,0.00,VWS V14.01,2013-03-03 13:33:00,
2013-03-03 08:38:00,34.6,23.3,30.05,North,5,4.0,6.0,63,0.00,,---,0.00,VWS V14.01,2013-03-03 13:38:00,
2013-03-03 08:43:00,34.6,22.5,30.05,North,355,3.0,9.0,61,0.00,,---,0.00,VWS V14.01,2013-03-03 13:43:00,
2013-03-03 08:48:00,35.2,23.1,30.05,NNE,18,2.0,5.0,61,0.00,,---,0.00,VWS V14.01,2013-03-03 13:48:00,
2013-03-03 08:53:00,35.7,24.0,30.05,ENE,61,5.0,6.0,62,0.00,,---,0.00,VWS V14.01,2013-03-03 13:53:00,
2013-03-03 08:58:00,35.8,22.5,30.05,NNE,22,5.0,8.0,58,0.00,,---,0.00,VWS V14.01,2013-03-03 13:58:00,
2013-03-03 09:03:00,35.9,23.0,30.05,North,5,8.0,8.0,59,0.00,,---,0.00,VWS V14.01,2013-03-03 14:03:00,
2013-03-03 09:09:00,36.0,23.1,30.05,NNW,329,2.0,8.0,59,0.00,,---,0.00,VWS V14.01,2013-03-03 14:09:00,
2013-03-03 09:14:00,36.5,23.5,30.05,NNW,338,7.0,8.0,59,0.00,,---,0.00,VWS V14.01,2013-03-03 14:14:00,
2013-03-03 09:19:00,36.6,22.8,30.05,NNE,15,3.0,8.0,57,0.00,,---,0.00,VWS V14.01,2013-03-03 14:19:00,
2013-03-03 09:24:00,36.9,22.7,30.05,NNW,331,6.0,10.0,56,0.00,,---,0.00,VWS V14.01,2013-03-03 14:24:00,
2013-03-03 09:29:00,36.7,22.1,30.05,NNW,333,5.0,10.0,55,0.00,,---,0.00,VWS V14.01,2013-03-03 14:29:00,
2013-03-03 09:34:00,36.9,22.7,30.05,NNW,328,3.0,8.0,56,0.00,,---,0.00,VWS V14.01,2013-03-03 14:34:00,
2013-03-03 09:39:00,37.6,23.8,30.05,NW,325,2.0,8.0,57,0.00,,---,0.00,VWS V14.01,2013-03-03 14:39:00,
2013-03-03 09:44:00,37.5,23.2,30.05,NE,47,2.0,11.0,56,0.00,,---,0.00,VWS V14.01,2013-03-03 14:44:00,
2013-03-03 09:49:00,37.9,23.6,30.05,NNW,333,5.0,8.0,56,0.00,,---,0.00,VWS V14.01,2013-03-03 14:49:00,
2013-03-03 09:54:00,38.2,22.6,30.05,NW,306,4.0,8.0,53,0.00,,---,0.00,VWS V14.01,2013-03-03 14:54:00,
2013-03-03 09:59:00,38.2,22.6,30.05,NNW,344,3.0,11.0,53,0.00,,---,0.00,VWS V14.01,2013-03-03 14:59:00,
2013-03-03 10:04:00,39.1,24.7,30.05,NNW,338,8.0,8.0,56,0.00,,---,0.00,VWS V14.01,2013-03-03 15:04:00,
2013-03-03 10:09:00,39.3,24.9,30.05,NNW,334,3.0,8.0,56,0.00,,---,0.00,VWS V14.01,2013-03-03 15:09:00,
2013-03-03 10:14:00,39.3,24.1,30.05,North,5,3.0,8.0,54,0.00,,---,0.00,VWS V14.01,2013-03-03 15:14:00,
2013-03-03 10:19:00,39.4,23.7,30.05,WNW,292,5.0,12.0,53,0.00,,---,0.00,VWS V14.01,2013-03-03 15:19:00,
2013-03-03 10:25:00,39.4,23.2,30.05,NNW,334,7.0,12.0,52,0.00,,---,0.00,VWS V14.01,2013-03-03 15:25:00,
2013-03-03 10:30:00,39.2,24.0,30.05,NNE,19,4.0,12.0,54,0.00,,---,0.00,VWS V14.01,2013-03-03 15:30:00,
2013-03-03 10:35:00,39.5,23.8,30.05,North,360,3.0,7.0,53,0.00,,---,0.00,VWS V14.01,2013-03-03 15:35:00,
2013-03-03 10:40:00,40.5,24.3,30.04,NNW,340,2.0,10.0,52,0.00,,---,0.00,VWS V14.01,2013-03-03 15:40:00,
2013-03-03 10:45:00,40.6,24.8,30.04,WNW,286,3.0,10.0,53,0.00,,---,0.00,VWS V14.01,2013-03-03 15:45:00,
2013-03-03 10:50:00,40.4,24.6,30.04,North,360,6.0,8.0,53,0.00,,---,0.00,VWS V14.01,2013-03-03 15:50:00,
2013-03-03 10:55:00,40.6,24.8,30.04,North,350,3.0,8.0,53,0.00,,---,0.00,VWS V14.01,2013-03-03 15:55:00,
2013-03-03 11:00:00,41.0,25.2,30.04,WNW,287,5.0,10.0,53,0.00,,---,0.00,VWS V14.01,2013-03-03 16:00:00,
2013-03-03 11:05:00,40.8,25.0,30.04,NW,321,2.0,7.0,53,0.00,,---,0.00,VWS V14.01,2013-03-03 16:05:00,
2013-03-03 11:10:00,41.6,25.8,30.04,NNW,328,2.0,7.0,53,0.00,,---,0.00,VWS V14.01,2013-03-03 16:10:00,
2013-03-03 11:15:00,42.0,24.2,30.04,WNW,300,9.0,10.0,49,0.00,,---,0.00,VWS V14.01,2013-03-03 16:15:00,
2013-03-03 11:20:00,41.6,24.8,30.04,WNW,300,4.0,7.0,51,0.00,,---,0.00,VWS V14.01,2013-03-03 16:20:00,
2013-03-03 11:26:00,42.2,24.9,30.04,WNW,288,4.0,8.0,50,0.00,,---,0.00,VWS V14.01,2013-03-03 16:26:00,
2013-03-03 11:31:00,42.0,26.1,30.03,NNW,331,3.0,9.0,53,0.00,,---,0.00,VWS V14.01,2013-03-03 16:31:00,
2013-03-03 11:36:00,41.7,25.4,30.03,NE,34,0.0,8.0,52,0.00,,---,0.00,VWS V14.01,2013-03-03 16:36:00,
2013-03-03 11:41:00,40.9,22.7,30.03,WNW,291,1.0,10.0,48,0.00,,---,0.00,VWS V14.01,2013-03-03 16:41:00,
2013-03-03 11:46:00,41.5,26.5,30.03,NNW,339,0.0,1.0,55,0.00,,---,0.00,VWS V14.01,2013-03-03 16:46:00,
2013-03-03 11:51:00,42.6,25.3,30.03,NW,322,3.0,9.0,50,0.00,,---,0.00,VWS V14.01,2013-03-03 16:51:00,
2013-03-03 11:56:00,43.6,27.1,30.02,WNW,286,3.0,9.0,52,0.00,,---,0.00,VWS V14.01,2013-03-03 16:56:00,
2013-03-03 12:01:00,43.5,26.1,30.02,NNW,333,7.0,10.0,50,0.00,,---,0.00,VWS V14.01,2013-03-03 17:01:00,
2013-03-03 12:06:00,43.3,24.9,30.02,WNW,302,7.0,10.0,48,0.00,,---,0.00,VWS V14.01,2013-03-03 17:06:00,
2013-03-03 12:11:00,43.7,25.8,30.02,NNW,340,4.0,11.0,49,0.00,,---,0.00,VWS V14.01,2013-03-03 17:11:00,
2013-03-03 12:16:00,44.1,25.7,30.02,NNW,331,7.0,8.0,48,0.00,,---,0.00,VWS V14.01,2013-03-03 17:16:00,
2013-03-03 12:21:00,43.6,24.2,30.02,NW,304,4.0,11.0,46,0.00,,---,0.00,VWS V14.01,2013-03-03 17:21:00,
2013-03-03 12:26:00,43.9,26.0,30.02,NNW,342,2.0,12.0,49,0.00,,---,0.00,VWS V14.01,2013-03-03 17:26:00,
2013-03-03 12:32:00,44.2,24.8,30.01,North,351,4.0,8.0,46,0.00,,---,0.00,VWS V14.01,2013-03-03 17:32:00,
2013-03-03 12:37:00,44.1,24.7,30.01,NW,310,3.0,11.0,46,0.00,,---,0.00,VWS V14.01,2013-03-03 17:37:00,
2013-03-03 12:42:00,44.5,24.5,30.01,WNW,296,4.0,11.0,45,0.00,,---,0.00,VWS V14.01,2013-03-03 17:42:00,
2013-03-03 12:47:00,45.1,25.0,30.00,NNE,19,6.0,6.0,45,0.00,,---,0.00,VWS V14.01,2013-03-03 17:47:00,
2013-03-03 12:52:00,44.7,24.7,30.00,WNW,290,6.0,11.0,45,0.00,,---,0.00,VWS V14.01,2013-03-03 17:52:00,
2013-03-03 12:57:00,44.3,25.4,30.00,WNW,294,3.0,11.0,47,0.00,,---,0.00,VWS V14.01,2013-03-03 17:57:00,
2013-03-03 13:02:00,44.5,25.0,30.00,NW,323,8.0,10.0,46,0.00,,---,0.00,VWS V14.01,2013-03-03 18:02:00,
2013-03-03 13:07:00,45.1,25.6,30.00,SW,230,1.0,10.0,46,0.00,,---,0.00,VWS V14.01,2013-03-03 18:07:00,
2013-03-03 13:12:00,45.2,25.7,29.99,NNW,346,1.0,10.0,46,0.00,,---,0.00,VWS V14.01,2013-03-03 18:12:00,
2013-03-03 13:17:00,45.3,24.7,29.99,WNW,302,8.0,12.0,44,0.00,,---,0.00,VWS V14.01,2013-03-03 18:17:00,
2013-03-03 13:22:00,44.8,25.8,29.99,NNW,338,4.0,12.0,47,0.00,,---,0.00,VWS V14.01,2013-03-03 18:22:00,
2013-03-03 13:27:00,44.9,24.9,29.99,NW,318,3.0,13.0,45,0.00,,---,0.00,VWS V14.01,2013-03-03 18:27:00,
2013-03-03 13:33:00,45.0,25.5,29.98,NW,326,4.0,7.0,46,0.00,,---,0.00,VWS V14.01,2013-03-03 18:33:00,
2013-03-03 13:38:00,45.2,25.1,29.98,NW,304,6.0,9.0,45,0.00,,---,0.00,VWS V14.01,2013-03-03 18:38:00,
2013-03-03 13:43:00,44.7,23.0,29.98,SW,219,3.0,11.0,42,0.00,,---,0.00,VWS V14.01,2013-03-03 18:43:00,
2013-03-03 13:48:00,45.8,26.7,29.98,WNW,288,2.0,7.0,47,0.00,,---,0.00,VWS V14.01,2013-03-03 18:48:00,
2013-03-03 13:53:00,45.8,25.1,29.98,WNW,284,5.0,11.0,44,0.00,,---,0.00,VWS V14.01,2013-03-03 18:53:00,
2013-03-03 13:58:00,45.8,24.6,29.97,West,270,4.0,11.0,43,0.00,,---,0.00,VWS V14.01,2013-03-03 18:58:00,
2013-03-03 14:03:00,45.3,25.8,29.97,NW,323,6.0,8.0,46,0.00,,---,0.00,VWS V14.01,2013-03-03 19:03:00,
2013-03-03 14:08:00,45.7,24.5,29.97,West,280,6.0,12.0,43,0.00,,---,0.00,VWS V14.01,2013-03-03 19:08:00,
2013-03-03 14:13:00,45.8,24.0,29.97,NW,319,3.0,12.0,42,0.00,,---,0.00,VWS V14.01,2013-03-03 19:13:00,
2013-03-03 14:19:00,46.1,26.0,29.97,NW,309,5.0,5.0,45,0.00,,---,0.00,VWS V14.01,2013-03-03 19:19:00,
2013-03-03 14:24:00,46.1,24.9,29.97,WNW,290,8.0,11.0,43,0.00,,---,0.00,VWS V14.01,2013-03-03 19:24:00,
2013-03-03 14:29:00,46.3,24.5,29.97,SW,215,4.0,11.0,42,0.00,,---,0.00,VWS V14.01,2013-03-03 19:29:00,
2013-03-03 14:34:00,46.6,25.9,29.97,West,277,5.0,7.0,44,0.00,,---,0.00,VWS V14.01,2013-03-03 19:34:00,
2013-03-03 14:39:00,46.8,26.6,29.97,WNW,284,4.0,9.0,45,0.00,,---,0.00,VWS V14.01,2013-03-03 19:39:00,
2013-03-03 14:44:00,46.7,26.0,29.97,NNW,328,5.0,9.0,44,0.00,,---,0.00,VWS V14.01,2013-03-03 19:44:00,
2013-03-03 14:49:00,46.3,24.5,29.97,West,273,0.0,8.0,42,0.00,,---,0.00,VWS V14.01,2013-03-03 19:49:00,
2013-03-03 14:54:00,46.9,25.6,29.97,WSW,239,1.0,8.0,43,0.00,,---,0.00,VWS V14.01,2013-03-03 19:54:00,
2013-03-03 14:59:00,46.4,25.1,29.97,WSW,252,2.0,12.0,43,0.00,,---,0.00,VWS V14.01,2013-03-03 19:59:00,
2013-03-03 15:04:00,46.7,24.3,29.97,NW,317,3.0,12.0,41,0.00,,---,0.00,VWS V14.01,2013-03-03 20:04:00,
2013-03-03 15:09:00,46.0,24.8,29.97,NNE,19,4.0,12.0,43,0.00,,---,0.00,VWS V14.01,2013-03-03 20:09:00,
2013-03-03 15:14:00,46.0,23.6,29.97,WNW,299,6.0,14.0,41,0.00,,---,0.00,VWS V14.01,2013-03-03 20:14:00,
2013-03-03 15:20:00,46.0,24.2,29.97,NNW,343,6.0,11.0,42,0.00,,---,0.00,VWS V14.01,2013-03-03 20:20:00,
2013-03-03 15:25:00,46.1,23.7,29.97,West,264,2.0,11.0,41,0.00,,---,0.00,VWS V14.01,2013-03-03 20:25:00,
2013-03-03 15:30:00,46.0,23.6,29.97,NNW,338,3.0,13.0,41,0.00,,---,0.00,VWS V14.01,2013-03-03 20:30:00,
2013-03-03 15:35:00,46.0,23.0,29.97,NW,322,3.0,6.0,40,0.00,,---,0.00,VWS V14.01,2013-03-03 20:35:00,
2013-03-03 15:40:00,46.2,23.8,29.96,West,277,4.0,7.0,41,0.00,,---,0.00,VWS V14.01,2013-03-03 20:40:00,
2013-03-03 15:45:00,46.5,23.5,29.96,NW,326,4.0,11.0,40,0.00,,---,0.00,VWS V14.01,2013-03-03 20:45:00,
2013-03-03 15:50:00,46.4,22.8,29.96,West,279,2.0,9.0,39,0.00,,---,0.00,VWS V14.01,2013-03-03 20:50:00,
2013-03-03 15:55:00,46.3,23.3,29.96,WSW,246,2.0,9.0,40,0.00,,---,0.00,VWS V14.01,2013-03-03 20:55:00,
2013-03-03 16:01:00,46.5,22.9,29.96,West,279,2.0,9.0,39,0.00,,---,0.00,VWS V14.01,2013-03-03 21:01:00,
2013-03-03 16:06:00,46.4,22.8,29.96,NNW,347,6.0,12.0,39,0.00,,---,0.00,VWS V14.01,2013-03-03 21:06:00,
2013-03-03 16:11:00,46.2,23.8,29.96,WNW,298,6.0,12.0,41,0.00,,---,0.00,VWS V14.01,2013-03-03 21:11:00,
2013-03-03 16:16:00,46.0,23.0,29.96,WNW,290,5.0,6.0,40,0.00,,---,0.00,VWS V14.01,2013-03-03 21:16:00,
2013-03-03 16:21:00,45.7,22.2,29.96,NW,309,4.0,8.0,39,0.00,,---,0.00,VWS V14.01,2013-03-03 21:21:00,
2013-03-03 16:26:00,45.8,22.9,29.96,WNW,290,0.0,8.0,40,0.00,,---,0.00,VWS V14.01,2013-03-03 21:26:00,
2013-03-03 16:31:00,45.8,24.0,29.96,NNW,331,3.0,5.0,42,0.00,,---,0.00,VWS V14.01,2013-03-03 21:31:00,
2013-03-03 16:36:00,46.0,23.0,29.96,North,351,3.0,9.0,40,0.00,,---,0.00,VWS V14.01,2013-03-03 21:36:00,
2013-03-03 16:41:00,45.7,22.8,29.96,NW,324,4.0,9.0,40,0.00,,---,0.00,VWS V14.01,2013-03-03 21:41:00,
2013-03-03 16:47:00,45.6,22.7,29.96,NNW,338,6.0,6.0,40,0.00,,---,0.00,VWS V14.01,2013-03-03 21:47:00,
2013-03-03 16:52:00,45.5,22.6,29.96,NW,315,6.0,10.0,40,0.00,,---,0.00,VWS V14.01,2013-03-03 21:52:00,
2013-03-03 16:57:00,45.5,23.2,29.96,WNW,296,6.0,10.0,41,0.00,,---,0.00,VWS V14.01,2013-03-03 21:57:00,
2013-03-03 17:02:00,45.2,22.9,29.96,WNW,298,7.0,7.0,41,0.00,,---,0.00,VWS V14.01,2013-03-03 22:02:00,
2013-03-03 17:07:00,44.9,22.6,29.96,North,9,1.0,10.0,41,0.00,,---,0.00,VWS V14.01,2013-03-03 22:07:00,
2013-03-03 17:12:00,44.7,23.0,29.96,WNW,284,6.0,10.0,42,0.00,,---,0.00,VWS V14.01,2013-03-03 22:12:00,
2013-03-03 17:17:00,44.8,23.1,29.97,North,360,3.0,6.0,42,0.00,,---,0.00,VWS V14.01,2013-03-03 22:17:00,
2013-03-03 17:22:00,44.9,22.1,29.96,NNW,331,9.0,11.0,40,0.00,,---,0.00,VWS V14.01,2013-03-03 22:22:00,
2013-03-03 17:27:00,45.0,22.7,29.97,WNW,288,3.0,11.0,41,0.00,,---,0.00,VWS V14.01,2013-03-03 22:27:00,
2013-03-03 17:32:00,44.9,22.6,29.97,WNW,301,6.0,6.0,41,0.00,,---,0.00,VWS V14.01,2013-03-03 22:32:00,
2013-03-03 17:38:00,44.8,22.5,29.97,NW,306,4.0,6.0,41,0.00,,---,0.00,VWS V14.01,2013-03-03 22:38:00,
2013-03-03 17:43:00,44.6,22.4,29.97,WNW,297,6.0,8.0,41,0.00,,---,0.00,VWS V14.01,2013-03-03 22:43:00,
2013-03-03 17:48:00,44.3,22.1,29.97,WNW,294,1.0,4.0,41,0.00,,---,0.00,VWS V14.01,2013-03-03 22:48:00,
2013-03-03 17:53:00,44.0,22.4,29.97,NW,310,4.0,4.0,42,0.00,,---,0.00,VWS V14.01,2013-03-03 22:53:00,
2013-03-03 17:58:00,43.7,21.6,29.98,NW,324,4.0,9.0,41,0.00,,---,0.00,VWS V14.01,2013-03-03 22:58:00,
2013-03-03 18:03:00,43.5,22.0,29.98,NNW,336,2.0,7.0,42,0.00,,---,0.00,VWS V14.01,2013-03-03 23:03:00,
2013-03-03 18:08:00,43.3,21.2,29.98,WNW,289,3.0,7.0,41,0.00,,---,0.00,VWS V14.01,2013-03-03 23:08:00,
2013-03-03 18:13:00,42.9,21.4,29.98,NNW,329,1.0,7.0,42,0.00,,---,0.00,VWS V14.01,2013-03-03 23:13:00,
2013-03-03 18:18:00,42.5,21.6,29.98,NNW,331,2.0,5.0,43,0.00,,---,0.00,VWS V14.01,2013-03-03 23:18:00,
2013-03-03 18:23:00,42.2,21.9,29.98,NW,312,5.0,7.0,44,0.00,,---,0.00,VWS V14.01,2013-03-03 23:23:00,
2013-03-03 18:29:00,42.0,21.1,29.98,WNW,298,2.0,9.0,43,0.00,,---,0.00,VWS V14.01,2013-03-03 23:29:00,
2013-03-03 18:34:00,41.7,20.9,29.98,NNW,330,3.0,7.0,43,0.00,,---,0.00,VWS V14.01,2013-03-03 23:34:00,
2013-03-03 18:39:00,41.5,21.2,29.99,NNW,342,5.0,11.0,44,0.00,,---,0.00,VWS V14.01,2013-03-03 23:39:00,
2013-03-03 18:44:00,41.3,21.6,29.99,North,360,10.0,11.0,45,0.00,,---,0.00,VWS V14.01,2013-03-03 23:44:00,
2013-03-03 18:49:00,41.0,21.3,29.99,NNW,335,5.0,10.0,45,0.00,,---,0.00,VWS V14.01,2013-03-03 23:49:00,
2013-03-03 18:54:00,40.7,21.0,30.00,NNW,340,3.0,11.0,45,0.00,,---,0.00,VWS V14.01,2013-03-03 23:54:00,
2013-03-03 18:59:00,40.4,20.8,30.00,NW,315,6.0,11.0,45,0.00,,---,0.00,VWS V14.01,2013-03-03 23:59:00,
2013-03-03 19:04:00,40.0,20.9,30.00,NNW,332,4.0,8.0,46,0.00,,---,0.00,VWS V14.01,2013-03-04 00:04:00,
2013-03-03 19:09:00,39.6,20.5,30.01,NW,322,2.0,8.0,46,0.00,,---,0.00,VWS V14.01,2013-03-04 00:09:00,
2013-03-03 19:14:00,39.2,20.7,30.01,NNW,346,2.0,9.0,47,0.00,,---,0.00,VWS V14.01,2013-03-04 00:14:00,
2013-03-03 19:19:00,38.8,20.8,30.01,North,355,1.0,5.0,48,0.00,,---,0.00,VWS V14.01,2013-03-04 00:19:00,
2013-03-03 19:25:00,38.4,20.4,30.02,NNW,328,3.0,10.0,48,0.00,,---,0.00,VWS V14.01,2013-03-04 00:25:00,
2013-03-03 19:30:00,38.2,20.2,30.02,NNW,333,5.0,10.0,48,0.00,,---,0.00,VWS V14.01,2013-03-04 00:30:00,
2013-03-03 19:35:00,37.9,20.5,30.02,North,5,3.0,9.0,49,0.00,,---,0.00,VWS V14.01,2013-03-04 00:35:00,
2013-03-03 19:40:00,37.6,20.2,30.02,NNW,348,2.0,9.0,49,0.00,,---,0.00,VWS V14.01,2013-03-04 00:40:00,
2013-03-03 19:45:00,37.4,20.0,30.02,North,355,5.0,9.0,49,0.00,,---,0.00,VWS V14.01,2013-03-04 00:45:00,
2013-03-03 19:50:00,37.1,19.7,30.03,NNW,329,2.0,8.0,49,0.00,,---,0.00,VWS V14.01,2013-03-04 00:50:00,
2013-03-03 19:55:00,36.8,19.5,30.03,NNW,338,6.0,8.0,49,0.00,,---,0.00,VWS V14.01,2013-03-04 00:55:00,
2013-03-03 20:00:00,36.6,19.3,30.03,NW,317,4.0,8.0,49,0.00,,---,0.00,VWS V14.01,2013-03-04 01:00:00,
2013-03-03 20:06:00,36.4,19.1,30.03,NNW,336,3.0,8.0,49,0.00,,---,0.00,VWS V14.01,2013-03-04 01:06:00,
2013-03-03 20:11:00,36.2,19.4,30.03,NNW,344,2.0,8.0,50,0.00,,---,0.00,VWS V14.01,2013-03-04 01:11:00,
2013-03-03 20:16:00,36.0,19.6,30.03,NNE,22,4.0,6.0,51,0.00,,---,0.00,VWS V14.01,2013-03-04 01:16:00,
2013-03-03 20:21:00,35.8,19.5,30.03,North,9,1.0,6.0,51,0.00,,---,0.00,VWS V14.01,2013-03-04 01:21:00,
2013-03-03 20:26:00,35.6,19.3,30.04,NNW,338,8.0,10.0,51,0.00,,---,0.00,VWS V14.01,2013-03-04 01:26:00,
2013-03-03 20:31:00,35.5,19.2,30.04,NNW,333,6.0,8.0,51,0.00,,---,0.00,VWS V14.01,2013-03-04 01:31:00,
2013-03-03 20:36:00,35.4,19.1,30.04,NNW,336,2.0,10.0,51,0.00,,---,0.00,VWS V14.01,2013-03-04 01:36:00,
2013-03-03 20:41:00,35.2,19.4,30.04,NNW,342,6.0,10.0,52,0.00,,---,0.00,VWS V14.01,2013-03-04 01:41:00,
2013-03-03 20:46:00,35.1,19.3,30.05,NW,316,10.0,10.0,52,0.00,,---,0.00,VWS V14.01,2013-03-04 01:46:00,
2013-03-03 20:51:00,35.1,19.3,30.05,NNW,333,3.0,12.0,52,0.00,,---,0.00,VWS V14.01,2013-03-04 01:51:00,
2013-03-03 20:56:00,35.0,19.2,30.05,NW,325,6.0,14.0,52,0.00,,---,0.00,VWS V14.01,2013-03-04 01:56:00,
2013-03-03 21:02:00,34.9,19.1,30.06,NNW,342,4.0,6.0,52,0.00,,---,0.00,VWS V14.01,2013-03-04 02:02:00,
2013-03-03 21:07:00,34.8,19.0,30.06,NNW,338,10.0,14.0,52,0.00,,---,0.00,VWS V14.01,2013-03-04 02:07:00,
2013-03-03 21:12:00,34.7,18.9,30.06,NW,324,4.0,14.0,52,0.00,,---,0.00,VWS V14.01,2013-03-04 02:12:00,
2013-03-03 21:17:00,34.6,18.8,30.07,North,5,5.0,8.0,52,0.00,,---,0.00,VWS V14.01,2013-03-04 02:17:00,
2013-03-03 21:22:00,34.5,18.7,30.07,North,360,5.0,8.0,52,0.00,,---,0.00,VWS V14.01,2013-03-04 02:22:00,
2013-03-03 21:27:00,34.3,19.0,30.06,NW,319,1.0,8.0,53,0.00,,---,0.00,VWS V14.01,2013-03-04 02:27:00,
2013-03-03 21:32:00,34.0,18.7,30.07,WNW,298,3.0,6.0,53,0.00,,---,0.00,VWS V14.01,2013-03-04 02:32:00,
2013-03-03 21:37:00,33.8,18.9,30.07,NNW,342,1.0,10.0,54,0.00,,---,0.00,VWS V14.01,2013-03-04 02:37:00,
2013-03-03 21:42:00,33.6,19.2,30.07,NNW,338,3.0,11.0,55,0.00,,---,0.00,VWS V14.01,2013-03-04 02:42:00,
2013-03-03 21:47:00,33.4,19.0,30.07,NNW,346,3.0,5.0,55,0.00,,---,0.00,VWS V14.01,2013-03-04 02:47:00,
2013-03-03 21:53:00,33.2,18.8,30.07,North,5,1.0,8.0,55,0.00,,---,0.00,VWS V14.01,2013-03-04 02:53:00,
2013-03-03 21:58:00,33.1,19.1,30.08,NNW,335,3.0,8.0,56,0.00,,---,0.00,VWS V14.01,2013-03-04 02:58:00,
2013-03-03 22:03:00,32.9,18.9,30.08,North,351,2.0,4.0,56,0.00,,---,0.00,VWS V14.01,2013-03-04 03:03:00,
2013-03-03 22:08:00,32.7,19.2,30.08,NW,317,4.0,6.0,57,0.00,,---,0.00,VWS V14.01,2013-03-04 03:08:00,
2013-03-03 22:13:00,32.5,19.0,30.08,NNW,331,3.0,6.0,57,0.00,,---,0.00,VWS V14.01,2013-03-04 03:13:00,
2013-03-03 22:18:00,32.3,19.2,30.08,North,349,6.0,6.0,58,0.00,,---,0.00,VWS V14.01,2013-03-04 03:18:00,
2013-03-03 22:23:00,32.2,19.1,30.08,NNW,332,1.0,6.0,58,0.00,,---,0.00,VWS V14.01,2013-03-04 03:23:00,
2013-03-03 22:28:00,32.0,19.3,30.08,NNW,340,2.0,6.0,59,0.00,,---,0.00,VWS V14.01,2013-03-04 03:28:00,
2013-03-03 22:33:00,31.8,19.1,30.08,NNE,13,2.0,3.0,59,0.00,,---,0.00,VWS V14.01,2013-03-04 03:33:00,
2013-03-03 22:38:00,31.6,19.3,30.08,North,5,2.0,5.0,60,0.00,,---,0.00,VWS V14.01,2013-03-04 03:38:00,
2013-03-03 22:43:00,31.4,19.1,30.08,North,355,1.0,6.0,60,0.00,,---,0.00,VWS V14.01,2013-03-04 03:43:00,
2013-03-03 22:48:00,31.3,19.0,30.08,NNW,333,0.0,3.0,60,0.00,,---,0.00,VWS V14.01,2013-03-04 03:48:00,
2013-03-03 22:54:00,31.2,19.3,30.08,NW,323,0.0,5.0,61,0.00,,---,0.00,VWS V14.01,2013-03-04 03:54:00,
2013-03-03 22:59:00,31.1,19.2,30.08,NNW,344,0.0,5.0,61,0.00,,---,0.00,VWS V14.01,2013-03-04 03:59:00,
2013-03-03 23:04:00,31.0,19.1,30.08,NNW,333,2.0,3.0,61,0.00,,---,0.00,VWS V14.01,2013-03-04 04:04:00,
2013-03-03 23:09:00,30.8,19.3,30.08,NNW,338,0.0,6.0,62,0.00,,---,0.00,VWS V14.01,2013-03-04 04:09:00,
2013-03-03 23:14:00,30.7,19.2,30.08,NNW,333,0.0,6.0,62,0.00,,---,0.00,VWS V14.01,2013-03-04 04:14:00,
2013-03-03 23:19:00,30.5,19.0,30.08,North,11,0.0,3.0,62,0.00,,---,0.00,VWS V14.01,2013-03-04 04:19:00,
2013-03-03 23:24:00,30.3,19.2,30.08,NNW,341,2.0,3.0,63,0.00,,---,0.00,VWS V14.01,2013-03-04 04:24:00,
2013-03-03 23:29:00,30.2,19.1,30.08,North,10,1.0,3.0,63,0.00,,---,0.00,VWS V14.01,2013-03-04 04:29:00,
2013-03-03 23:34:00,30.0,19.0,30.08,North,360,1.0,2.0,63,0.00,,---,0.00,VWS V14.01,2013-03-04 04:34:00,
2013-03-03 23:40:00,29.9,18.9,30.08,NNW,348,0.0,5.0,63,0.00,,---,0.00,VWS V14.01,2013-03-04 04:40:00,
2013-03-03 23:45:00,29.8,19.1,30.08,NNW,347,1.0,5.0,64,0.00,,---,0.00,VWS V14.01,2013-03-04 04:45:00,
2013-03-03 23:50:00,29.7,19.0,30.08,NNW,345,1.0,2.0,64,0.00,,---,0.00,VWS V14.01,2013-03-04 04:50:00,
2013-03-03 23:55:00,29.5,18.8,30.08,NNW,331,0.0,2.0,64,0.00,,---,0.00,VWS V14.01,2013-03-04 04:55:00,